When you browse on this site, cookies collect data to enhance your experience and personalize the content and advertising you see.
Visit our Privacy Policy to learn more. By continuing to use the site, you agree to this use of cookies and data.
EN

Hourly Weather Khartsyzk

Today, 11 July, Saturday

Time Temperature Precipitation Wind Pressure Humidity
00:00 +19°C° 0 mm 3 mps 747 mmHg 61%
01:00 +19°C° 0 mm 3 mps 747 mmHg 63%
02:00 +18°C° 0 mm 3 mps 747 mmHg 64%
03:00 +18°C° 0 mm 2 mps 747 mmHg 65%
04:00 +18°C° 0 mm 3 mps 747 mmHg 66%
05:00 +18°C° 0 mm 3 mps 747 mmHg 67%
06:00 +18°C° 0 mm 3 mps 747 mmHg 67%
07:00 +20°C° 0 mm 3 mps 747 mmHg 62%
08:00 +21°C° 0 mm 4 mps 747 mmHg 56%
09:00 +23°C° 0 mm 4 mps 748 mmHg 51%
10:00 +25°C° 0 mm 4 mps 747 mmHg 47%
11:00 +26°C° 0 mm 4 mps 747 mmHg 43%
12:00 +27°C° 0 mm 4 mps 747 mmHg 39%
13:00 +28°C° 0 mm 4 mps 747 mmHg 38%
14:00 +29°C° 0 mm 4 mps 746 mmHg 36%
15:00 +29°C° 0 mm 4 mps 746 mmHg 35%
16:00 +29°C° 0 mm 4 mps 746 mmHg 36%
17:00 +29°C° 0 mm 4 mps 745 mmHg 38%
18:00 +28°C° 0 mm 4 mps 745 mmHg 39%
19:00 +27°C° 0 mm 4 mps 745 mmHg 44%
20:00 +25°C° 0 mm 4 mps 745 mmHg 48%
21:00 +22°C° 0 mm 3 mps 745 mmHg 53%
22:00 +22°C° 0 mm 3 mps 745 mmHg 56%
23:00 +21°C° 0 mm 4 mps 744 mmHg 58%

Tomorrow, 12 July, Sunday

Time Temperature Precipitation Wind Pressure Humidity
00:00 +21°C° 0 mm 4 mps 744 mmHg 61%
01:00 +20°C° 0 mm 4 mps 744 mmHg 63%
02:00 +20°C° 0 mm 4 mps 744 mmHg 65%
03:00 +19°C° 0 mm 4 mps 743 mmHg 66%
04:00 +19°C° 0 mm 4 mps 743 mmHg 68%
05:00 +19°C° 0 mm 4 mps 743 mmHg 70%
06:00 +19°C° 0 mm 4 mps 742 mmHg 72%
07:00 +21°C° 0 mm 4 mps 742 mmHg 69%
08:00 +23°C° 0 mm 4 mps 742 mmHg 66%
09:00 +26°C° 0 mm 4 mps 742 mmHg 62%
10:00 +28°C° 0 mm 4 mps 742 mmHg 57%
11:00 +30°C° 0 mm 4 mps 742 mmHg 52%
12:00 +33°C° 0 mm 4 mps 741 mmHg 47%
13:00 +33°C° 0.1 mm 4 mps 741 mmHg 47%
14:00 +33°C° 0.1 mm 3 mps 741 mmHg 46%
15:00 +33°C° 0.1 mm 3 mps 740 mmHg 46%
16:00 +31°C° 0.4 mm 3 mps 740 mmHg 49%
17:00 +30°C° 0.4 mm 3 mps 739 mmHg 53%
18:00 +29°C° 0.4 mm 2 mps 739 mmHg 56%
19:00 +28°C° 1.3 mm 2 mps 739 mmHg 62%
20:00 +27°C° 1.3 mm 2 mps 739 mmHg 69%
21:00 +25°C° 1.3 mm 2 mps 739 mmHg 75%
22:00 +25°C° 2.1 mm 2 mps 738 mmHg 75%
23:00 +24°C° 2.1 mm 3 mps 738 mmHg 76%

Day after tomorrow, 13 July, Monday

Time Temperature Precipitation Wind Pressure Humidity
00:00 +23°C° 2.1 mm 4 mps 738 mmHg 77%
01:00 +22°C° 0.1 mm 3 mps 738 mmHg 79%
02:00 +23°C° 0.1 mm 2 mps 737 mmHg 82%
03:00 +22°C° 0.1 mm 1 mps 737 mmHg 84%
04:00 +23°C° 0.1 mm 1 mps 737 mmHg 83%
05:00 +23°C° 0.1 mm 1 mps 737 mmHg 82%
06:00 +23°C° 0.1 mm 1 mps 736 mmHg 81%
07:00 +24°C° 0.1 mm 1 mps 736 mmHg 76%
08:00 +25°C° 0.1 mm 1 mps 736 mmHg 70%
09:00 +26°C° 0.1 mm 1 mps 736 mmHg 65%
10:00 +28°C° 0 mm 1 mps 736 mmHg 59%
11:00 +29°C° 0 mm 1 mps 736 mmHg 53%
12:00 +31°C° 0 mm 1 mps 736 mmHg 47%
13:00 +31°C° 0 mm 1 mps 736 mmHg 45%
14:00 +32°C° 0 mm 2 mps 736 mmHg 42%
15:00 +34°C° 0 mm 2 mps 736 mmHg 39%
16:00 +30°C° 1.3 mm 3 mps 735 mmHg 50%
17:00 +28°C° 1.3 mm 4 mps 735 mmHg 60%
18:00 +25°C° 1.3 mm 5 mps 734 mmHg 71%
19:00 +23°C° 2.2 mm 4 mps 734 mmHg 71%
20:00 +24°C° 2.2 mm 2 mps 735 mmHg 72%
21:00 +23°C° 2.2 mm 1 mps 735 mmHg 73%
22:00 +23°C° 0.6 mm 1 mps 735 mmHg 75%
23:00 +23°C° 0.6 mm 2 mps 735 mmHg 76%

14 July, Tuesday

Time Temperature Precipitation Wind Pressure Humidity
00:00 +23°C° 0.6 mm 2 mps 735 mmHg 78%
01:00 +21°C° 0 mm 2 mps 735 mmHg 80%
02:00 +21°C° 0 mm 2 mps 735 mmHg 81%
03:00 +21°C° 0 mm 2 mps 735 mmHg 82%
04:00 +21°C° 0.2 mm 2 mps 735 mmHg 83%
05:00 +22°C° 0.2 mm 1 mps 735 mmHg 83%
06:00 +22°C° 0.2 mm 1 mps 735 mmHg 84%
07:00 +22°C° 0.4 mm 1 mps 735 mmHg 80%
08:00 +23°C° 0.4 mm 2 mps 735 mmHg 77%
09:00 +24°C° 0.4 mm 2 mps 736 mmHg 73%
10:00 +24°C° 2.1 mm 2 mps 736 mmHg 75%
11:00 +24°C° 2.1 mm 2 mps 736 mmHg 78%
12:00 +23°C° 2.1 mm 2 mps 736 mmHg 80%
13:00 +24°C° 0.5 mm 3 mps 736 mmHg 76%
14:00 +25°C° 0.5 mm 4 mps 736 mmHg 72%
15:00 +26°C° 0.5 mm 5 mps 737 mmHg 68%
16:00 +24°C° 0.3 mm 6 mps 737 mmHg 69%
17:00 +23°C° 0.3 mm 6 mps 737 mmHg 71%
18:00 +22°C° 0.3 mm 6 mps 737 mmHg 73%
19:00 +21°C° 0 mm 6 mps 737 mmHg 76%
20:00 +20°C° 0 mm 5 mps 737 mmHg 78%
21:00 +19°C° 0 mm 5 mps 738 mmHg 81%
22:00 +17°C° 0 mm 5 mps 738 mmHg 82%
23:00 +18°C° 0 mm 4 mps 738 mmHg 83%

15 July, Wednesday

Time Temperature Precipitation Wind Pressure Humidity
00:00 +18°C° 0 mm 4 mps 738 mmHg 84%
01:00 +18°C° 0 mm 4 mps 738 mmHg 83%
02:00 +16°C° 0 mm 5 mps 738 mmHg 83%
03:00 +16°C° 0 mm 5 mps 738 mmHg 83%
04:00 +16°C° 0 mm 5 mps 739 mmHg 83%
05:00 +17°C° 0 mm 5 mps 739 mmHg 82%
06:00 +17°C° 0 mm 5 mps 739 mmHg 82%
07:00 +17°C° 0 mm 5 mps 739 mmHg 79%
08:00 +19°C° 0 mm 5 mps 740 mmHg 76%
09:00 +20°C° 0 mm 5 mps 740 mmHg 73%
10:00 +21°C° 0 mm 6 mps 740 mmHg 66%
11:00 +23°C° 0 mm 6 mps 740 mmHg 58%
12:00 +24°C° 0 mm 6 mps 740 mmHg 50%
13:00 +26°C° 0 mm 6 mps 741 mmHg 48%
14:00 +26°C° 0 mm 6 mps 741 mmHg 46%
15:00 +26°C° 0 mm 6 mps 741 mmHg 44%
16:00 +26°C° 0 mm 6 mps 741 mmHg 47%
17:00 +25°C° 0 mm 5 mps 741 mmHg 49%
18:00 +25°C° 0 mm 5 mps 741 mmHg 52%
19:00 +22°C° 0 mm 4 mps 741 mmHg 57%
20:00 +21°C° 0 mm 3 mps 741 mmHg 61%
21:00 +19°C° 0 mm 3 mps 742 mmHg 66%
22:00 +18°C° 0 mm 2 mps 742 mmHg 68%
23:00 +18°C° 0 mm 1 mps 742 mmHg 70%

16 July, Thursday

Time Temperature Precipitation Wind Pressure Humidity
00:00 +18°C° 0 mm 1 mps 742 mmHg 73%
01:00 +16°C° 0 mm 1 mps 742 mmHg 74%
02:00 +16°C° 0 mm 1 mps 742 mmHg 75%
03:00 +16°C° 0 mm 2 mps 742 mmHg 77%
04:00 +16°C° 0 mm 2 mps 742 mmHg 75%
05:00 +16°C° 0 mm 2 mps 742 mmHg 74%
06:00 +16°C° 0 mm 2 mps 742 mmHg 73%
07:00 +18°C° 0 mm 2 mps 742 mmHg 67%
08:00 +19°C° 0 mm 3 mps 742 mmHg 62%
09:00 +20°C° 0 mm 3 mps 742 mmHg 56%
10:00 +21°C° 0 mm 4 mps 742 mmHg 52%
11:00 +22°C° 0 mm 4 mps 742 mmHg 49%
12:00 +23°C° 0 mm 4 mps 742 mmHg 45%
13:00 +23°C° 0 mm 4 mps 742 mmHg 45%
14:00 +23°C° 0 mm 4 mps 742 mmHg 45%
15:00 +23°C° 0 mm 4 mps 742 mmHg 46%
16:00 +23°C° 0 mm 4 mps 742 mmHg 46%
17:00 +24°C° 0 mm 3 mps 741 mmHg 46%
18:00 +24°C° 0 mm 3 mps 741 mmHg 46%
19:00 +23°C° 0 mm 2 mps 742 mmHg 50%
20:00 +20°C° 0 mm 2 mps 742 mmHg 55%
21:00 +19°C° 0 mm 2 mps 742 mmHg 59%
22:00 +20°C° 0 mm 1 mps 742 mmHg 61%
23:00 +19°C° 0 mm 1 mps 742 mmHg 62%
Show more